Weather History for Fort Wayne, IN

Change the Weather History Date:

Saturday, January 5, 2013

  Actual Average Record
Temperature  
Mean Temperature 25 °F 25 °F  
Max Temperature 34 °F 33 °F 60 °F (1939)
Min Temperature 15 °F 18 °F -14 °F (1999)
Degree Days  
Heating Degree Days 40 40  
Month to date heating degree days 228 199  
Since 1 July heating degree days 2430 2527  
Cooling Degree Days 0 0  
Month to date cooling degree days 0 0  
Year to date cooling degree days 0 0  
Moisture  
Dew Point 23 °F    
Average Humidity 84    
Maximum Humidity 92    
Minimum Humidity 75    
Precipitation  
Precipitation 0.01 in 0.09 in 0.85 in (1955)
Month to date precipitation 0.01 0.42  
Year to date precipitation 0.01 0.42  
Snow  
Snow 0.20 in 0.30 in 3.50 in (1954)
Month to date snowfall 0.2 1.6  
Since 1 July snowfall 9.8 12.2  
Snow Depth 2.00 in    
Sea Level Pressure  
Sea Level Pressure 30.22 in    
Wind  
Wind Speed 10 mph (SW)    
Max Wind Speed 20 mph    
Max Gust Speed 25 mph    
Visibility 7 miles    
Events Snow    
T = Trace of Precipitation, MM = Missing Value Source: NWS Daily Summary

Daily Weather History Graph

Daily Weather History Graph

Search for Another Location

Airport:

Trip Planner

Search our weather history database for the weather conditions in past years. The results will help you decide how hot, cold, wet, or windy it might be!

Date:

Astronomy

Jan. 05, 2013 Rise Set
Actual Time 8:05 AM EST 5:27 PM EST
Civil Twilight 7:34 AM EST 5:57 PM EST
Nautical Twilight 7:00 AM EST 6:32 PM EST
Astronomical Twilight 6:27 AM EST 7:05 PM EST
Moon 1:09 AM EST (1/5) 12:17 PM EST (1/5)
Length of Visible Light 10h 23m
Length of Day
9h 21m
Last Quarter, 44% of the Moon is Illuminated
Jan 5
Last Quarter
Jan 11
New
Jan 18
First Quarter
Jan 26
Full
Feb 3
Last Quarter

Hourly Weather History & Observations

Time (EST) Temp. Windchill Dew Point Humidity Pressure Visibility Wind Dir Wind Speed Gust Speed Precip Events Conditions
12:54 AM 18.0 °F 6.9 °F 15.1 °F 88% 30.31 in 10.0 mi SW 9.2 mph - N/A   Clear
1:54 AM 17.1 °F 7.6 °F 15.1 °F 92% 30.31 in 10.0 mi SW 6.9 mph - N/A   Clear
2:54 AM 16.0 °F 7.4 °F 12.9 °F 88% 30.30 in 10.0 mi SW 5.8 mph - N/A   Clear
3:54 AM 18.0 °F 5.4 °F 15.1 °F 88% 30.33 in 10.0 mi SW 11.5 mph - N/A   Clear
4:54 AM 17.1 °F 5.0 °F 15.1 °F 92% 30.32 in 8.0 mi SW 10.4 mph - N/A   Clear
5:54 AM 16.0 °F 8.8 °F 14.0 °F 92% 30.32 in 8.0 mi SW 4.6 mph - N/A   Clear
6:54 AM 17.1 °F 5.8 °F 14.0 °F 88% 30.33 in 9.0 mi SW 9.2 mph - N/A   Scattered Clouds
7:54 AM 17.1 °F 10.0 °F 15.1 °F 92% 30.32 in 8.0 mi South 4.6 mph - N/A   Scattered Clouds
8:54 AM 18.0 °F 6.9 °F 15.1 °F 88% 30.32 in 8.0 mi South 9.2 mph - N/A   Scattered Clouds
9:54 AM 21.0 °F 11.4 °F 18.0 °F 88% 30.32 in 8.0 mi SW 8.1 mph - N/A   Scattered Clouds
10:54 AM 24.1 °F 15.2 °F 19.9 °F 84% 30.32 in 8.0 mi SSW 8.1 mph - N/A   Scattered Clouds
11:54 AM 28.0 °F 19.3 °F 21.9 °F 78% 30.29 in 10.0 mi SSW 9.2 mph - N/A   Mostly Cloudy
12:54 PM 30.9 °F 24.3 °F 24.1 °F 76% 30.24 in 10.0 mi SSW 6.9 mph - N/A   Mostly Cloudy
1:54 PM 30.9 °F 21.7 °F 25.0 °F 79% 30.21 in 10.0 mi SSW 11.5 mph - N/A   Mostly Cloudy
2:54 PM 32.0 °F 24.2 °F 26.1 °F 79% 30.19 in 10.0 mi SSW 9.2 mph - N/A   Mostly Cloudy
3:54 PM 33.1 °F 25.5 °F 26.1 °F 75% 30.17 in 10.0 mi South 9.2 mph - N/A   Mostly Cloudy
4:54 PM 33.1 °F 23.9 °F 26.1 °F 75% 30.17 in 9.0 mi SSW 12.7 mph - N/A   Overcast
5:37 PM 33.8 °F 23.2 °F 28.4 °F 81% 30.15 in 1.8 mi SW 17.3 mph - N/A Snow Light Snow
5:45 PM 32.0 °F 21.2 °F 28.4 °F 87% 30.14 in 1.2 mi SW 16.1 mph - 0.00 in Snow Light Snow
5:54 PM 32.0 °F 22.1 °F 30.0 °F 92% 30.18 in 1.5 mi SW 13.8 mph - 0.00 in Snow Light Snow
6:19 PM 32.0 °F 22.5 °F 30.2 °F 93% 30.15 in 1.5 mi SW 12.7 mph - 0.01 in Snow Light Snow
6:31 PM 32.0 °F 22.5 °F 30.2 °F 93% 30.14 in 2.5 mi SW 12.7 mph - 0.01 in Snow Light Snow
6:36 PM 32.0 °F 22.5 °F 30.2 °F 93% 30.14 in 3.0 mi SW 12.7 mph - 0.01 in Snow Light Snow
6:50 PM 32.0 °F 22.1 °F 30.2 °F 93% 30.13 in 2.5 mi SSW 13.8 mph - 0.01 in Snow Light Snow
6:54 PM 32.0 °F 23.0 °F 30.9 °F 96% 30.17 in 2.5 mi SSW 11.5 mph - 0.01 in Snow Light Snow
7:06 PM 32.0 °F 22.5 °F 30.2 °F 93% 30.13 in 4.0 mi SSW 12.7 mph - 0.00 in   Overcast
7:31 PM 32.0 °F 22.5 °F 30.2 °F 93% 30.13 in 5.0 mi SSW 12.7 mph - 0.00 in   Overcast
7:54 PM 30.0 °F 21.1 °F 28.9 °F 96% 30.16 in 7.0 mi SSW 10.4 mph - 0.00 in   Overcast
8:54 PM 32.0 °F 23.0 °F 30.0 °F 92% 30.16 in 5.0 mi SSW 11.5 mph - 0.00 in Snow Light Snow
9:54 PM 32.0 °F 23.0 °F 30.0 °F 92% 30.14 in 6.0 mi SW 11.5 mph - 0.00 in   Overcast
10:54 PM 30.9 °F 21.7 °F 28.9 °F 92% 30.12 in 6.0 mi SSW 11.5 mph - N/A   Mostly Cloudy
11:54 PM 33.1 °F 23.0 °F 30.0 °F 89% 30.10 in 8.0 mi SW 15.0 mph - N/A   Overcast